Regional Weather Roundup
Issued by NWS

Home | Current Version | Previous Version | Graphics & Text | Print | Product List | Glossary On
Versions: 1 2 3 4 5 6 7 8 9 10 11 12 13 14 15 16 17 18 19 20 21 22 23 24 25 26 27 28 29 30 31 32 33 34 35 36 37 38 39 40 41 42 43 44 45 46 47 48 49 50
000
ASUS43 KDTX 280210
RWRMI
MICHIGAN HOURLY REGIONAL WEATHER ROUNDUP
NATIONAL WEATHER SERVICE DETROIT/PONTIAC MI
1000 PM EDT SUN JUL 27 2014

NOTE: "FAIR" INDICATES FEW OR NO CLOUDS BELOW 12,000 FEET WITH NO
SIGNIFICANT WEATHER AND/OR OBSTRUCTION TO VISIBILITY.

MIZ047>049-052>055-059>063-066>070-074>076-081>083-280300-
SOUTHEAST LOWER MICHIGAN

CITY           SKY/WX    TMP DP  RH WIND       PRES   REMARKS
ADRIAN         MOCLDY    62  60  93 CALM      29.73R
ALMA           CLOUDY    62  60  94 NW6       29.76R
ANN ARBOR      PTCLDY    59  56  89 W5        29.69F
BAD AXE        CLOUDY    61  60  96 N9        29.72R
DETROIT CITY   LGT RAIN  64  59  83 SW5       29.65F
DETROIT        MOCLDY    62  58  86 CALM      29.68F
FLINT          MOCLDY    62  58  86 NW9       29.71R
GROSSE ILE     PTCLDY    63  59  88 NW3       29.66S
HILLSDALE      PTCLDY    62  62  99 CALM      29.75R
HOWELL         RAIN      59  58  97 W5        29.70S

CITY           SKY/WX    TMP DP  RH WIND       PRES   REMARKS
JACKSON        PTCLDY    61  58  90 S6        29.72S
LAMBERTVILLE   MOCLDY    63  55  77 CALM      29.72S
LANSING        MOCLDY    61  59  93 W6        29.73R
LAPEER         NOT AVBL
MASON          MOCLDY    60  59  94 SW3       29.72R
MONROE         PTCLDY    61  57  88 W6        29.68R
MT. CLEMENS    MOCLDY    61  60  96 W7        29.64R
PONTIAC        MOCLDY   N/A N/A N/A VRB7      29.68S
PORT HOPE        N/A     63  61  93 NE12      29.69R
PORT HURON     CLOUDY    61  61 100 CALM      29.64R
TRI CITIES     CLOUDY    64  61  90 NW8       29.74R
YPSILANTI      PTCLDY    65  58  78 W3        29.69S
$$
MIZ043>046-050>051-056>058-064>065-071>073-077>080-280300-
SOUTHWEST LOWER MICHIGAN

CITY           SKY/WX    TMP DP  RH WIND       PRES   REMARKS
BATTLE CREEK   PTCLDY    65  60  84 W5        29.76R
BENTON HARBOR  PTCLDY    63  59  87 VRB7      29.80R
BIG RAPIDS     CLOUDY    65  60  85 NW8       29.77R
COLDWATER      MOCLDY    68  60  76 NW3       29.76R
HOLLAND        CLOUDY    64  60  87 NW14G22   29.78R
GRAND RAPIDS   MOCLDY    65  61  87 CALM      29.75R
KALAMAZOO      PTCLDY    66  59  78 W9        29.76R
MARSHALL       PTCLDY    60  58  91 SW6       29.74R
MUSKEGON       MOCLDY    65  59  81 N14       29.78R
$$
MIZ016>042-280300-
NORTHERN LOWER MICHIGAN

CITY           SKY/WX    TMP DP  RH WIND       PRES   REMARKS
ALPENA         CLOUDY    63  61  93 NW6       29.76R
BEAVER ISLAND  CLOUDY    61  54  76 N12       29.86R
BELLAIRE       CLOUDY    64  60  85 N9        29.80R
CADILLAC       CLOUDY    62  61  97 N8        29.79R
CHARLEVOIX     CLOUDY    64  59  84 N9G16     29.85R
FRANKFORT      CLOUDY    62  54  74 N12G22    29.84R
GAYLORD        CLOUDY    62  59  90 VRB6      29.81R
GRAYLING       CLOUDY    64  61  93 N8        29.79R
HARBOR SPRINGS CLOUDY    64  60  89 NW7       29.81R
HOUGHTON LAKE  MOCLDY    63  60  90 N7        29.78R
MANISTEE       CLOUDY    63  55  77 N10G20    29.83R
OSCODA         CLOUDY    64  61  92 N3        29.73R
PELLSTON       CLOUDY    64  59  83 N9        29.81R
TRAVERSE CITY  CLOUDY    65  59  81 N13G18    29.81R
$$
MIZ007>008-015-280300-
EASTERN UPPER MICHIGAN

CITY           SKY/WX    TMP DP  RH WIND       PRES   REMARKS
KINROSS        PTCLDY    57  55  94 NW7       29.82R
MACKINAC ISLAN MOCLDY    61  57  89 N8        29.81R
NEWBERRY       CLEAR     54  47  78 NW10G17   29.87R
S. S. MARIE    PTCLDY    64  48  56 N7        29.82R
$$
MIZ004>006-011>014-085-280300-
CENTRAL UPPER MICHIGAN

CITY           SKY/WX    TMP DP  RH WIND       PRES   REMARKS
MANISTIQUE     CLEAR     56  49  77 N9        29.88R
ESCANABA       CLEAR     57  46  67 N13G18    29.92R
MENOMINEE      CLEAR     63  48  59 N9        29.91R
SAWYER-GWINN   PTCLDY    54  46  76 N13G21    29.97R
$$
MIZ001>003-009>011-084-280300-
WESTERN UPPER MICHIGAN

CITY           SKY/WX    TMP DP  RH WIND       PRES   REMARKS
IRON MOUNTAIN  CLEAR     60  48  64 N12       29.96R
HOUGHTON       PTCLDY    52  48  86 MISG      30.02R
COPPER HARBOR    N/A     53  46  77 N7        30.01R
IRONWOOD       CLOUDY    55  55 100 N3        30.04R
$$

ABBREVIATIONS USED IN REMARKS
   TC - TEMPERATURE IN CELSIUS
  WCI - WIND CHILL INDEX
   HX - HEAT INDEX
  VSB - VISIBILITY



USA.gov is the U.S. government's official web portal to all federal, state and local government web resources and services.